Weather History for South Lake Tahoe, CA

Change the Weather History Date:

Saturday, January 19, 2013

  Actual Average Record
Temperature  
Mean Temperature 23 °F 30 °F  
Max Temperature 46 °F 43 °F 58 °F (2014)
Min Temperature 0 °F 16 °F -2 °F (1990)
Degree Days  
Heating Degree Days 42 35  
Month to date heating degree days 818 672  
Since 1 July heating degree days 3680 3855  
Cooling Degree Days 0 0  
Month to date cooling degree days 0 0  
Year to date cooling degree days 0 0  
Moisture  
Dew Point 8 °F    
Average Humidity 54    
Maximum Humidity 80    
Minimum Humidity 28    
Precipitation  
Precipitation 0.00 in - 2.40 in (1969)
Month to date precipitation 0.36  
Year to date precipitation 0.36  
Sea Level Pressure  
Sea Level Pressure 30.47 in    
Wind  
Wind Speed 2 mph (SSE)    
Max Wind Speed 9 mph    
Max Gust Speed 9 mph    
Visibility 9 miles    
Events      
T = Trace of Precipitation, MM = Missing Value Source: NWS Daily Summary

Daily Weather History Graph

Daily Weather History Graph

Search for Another Location

Airport:

Trip Planner

Search our weather history database for the weather conditions in past years. The results will help you decide how hot, cold, wet, or windy it might be!

Date:

Astronomy

Jan. 19, 2013 Rise Set
Actual Time 7:15 AM PST 5:06 PM PST
Civil Twilight 6:46 AM PST 5:35 PM PST
Nautical Twilight 6:13 AM PST 6:08 PM PST
Astronomical Twilight 5:41 AM PST 6:40 PM PST
Moon 11:35 AM PST (1/19) 12:55 AM PST (1/19)
Length of Visible Light 10h 49m
Length of Day
9h 51m
First Quarter, 58% of the Moon is Illuminated
Jan 19
First Quarter
Jan 26
Full
Feb 3
Last Quarter
Feb 9
New
Feb 17
First Quarter

Hourly Weather History & Observations

Time (PST) Temp. Windchill Dew Point Humidity Pressure Visibility Wind Dir Wind Speed Gust Speed Precip Events Conditions
12:53 AM 10.9 °F - 5.0 °F 77% 30.40 in 8.0 mi Calm Calm - N/A   Clear
1:53 AM 10.0 °F 3.6 °F 3.0 °F 73% 30.42 in 7.0 mi South 3.5 mph - N/A   Clear
2:53 AM 7.0 °F 0.1 °F 1.0 °F 77% 30.43 in 9.0 mi South 3.5 mph - N/A   Clear
3:53 AM 6.1 °F -2.8 °F -0.0 °F 76% 30.44 in 8.0 mi South 4.6 mph - N/A   Clear
4:53 AM 5.0 °F -2.1 °F -2.0 °F 73% 30.49 in 10.0 mi SSW 3.5 mph - N/A   Clear
5:53 AM 3.0 °F -4.4 °F -4.0 °F 73% 30.53 in 9.0 mi SSW 3.5 mph - N/A   Clear
6:53 AM 1.9 °F -5.6 °F -5.1 °F 72% 30.56 in 10.0 mi South 3.5 mph - N/A   Clear
7:53 AM 1.9 °F - -5.1 °F 72% 30.59 in 10.0 mi Calm Calm - N/A   Clear
8:53 AM 10.0 °F 3.6 °F 3.0 °F 73% 30.58 in 10.0 mi South 3.5 mph - N/A   Clear
9:53 AM 21.9 °F - 9.0 °F 58% 30.54 in 10.0 mi Calm Calm - N/A   Clear
10:53 AM 30.9 °F - 10.9 °F 43% 30.49 in 10.0 mi Calm Calm - N/A   Clear
11:53 AM 42.1 °F 38.4 °F 14.0 °F 32% 30.40 in 10.0 mi NE 5.8 mph - N/A   Clear
12:53 PM 42.1 °F 37.7 °F 15.1 °F 34% 30.39 in 10.0 mi NNE 6.9 mph - N/A   Clear
1:53 PM 45.0 °F 41.2 °F 15.1 °F 30% 30.36 in 10.0 mi NNE 6.9 mph - N/A   Clear
2:53 PM 46.0 °F 44.8 °F 15.1 °F 29% 30.36 in 10.0 mi NNE 3.5 mph - N/A   Clear
3:53 PM 41.0 °F 38.0 °F 14.0 °F 33% 30.39 in 10.0 mi NNE 4.6 mph - N/A   Clear
4:53 PM 33.1 °F - 17.1 °F 52% 30.44 in 10.0 mi Calm Calm - N/A   Clear
5:53 PM 27.0 °F - 16.0 °F 63% 30.49 in 10.0 mi Calm Calm - N/A   Clear
6:53 PM 24.1 °F 19.7 °F 15.1 °F 69% 30.52 in 10.0 mi South 3.5 mph - N/A   Clear
7:53 PM 21.0 °F - 12.0 °F 68% 30.55 in 10.0 mi Calm Calm - N/A   Clear
8:53 PM 19.0 °F - 10.9 °F 71% 30.53 in 10.0 mi Calm Calm - N/A   Clear
9:53 PM 17.1 °F - 8.1 °F 68% 30.49 in 9.0 mi Calm Calm - N/A   Clear
10:53 PM 14.0 °F - 7.0 °F 74% 30.47 in 8.0 mi Calm Calm - N/A   Clear
11:53 PM 12.9 °F - 6.1 °F 74% 30.43 in 8.0 mi Calm Calm - N/A   Clear